Location: El Gavilán
(32.5178°N, 116.7422°W)
Time: 09:02:26
(UTC+00:00)

Cosmos 1515 - Visible Passes

Search period start: 08 September 2024 00:00
Search period end: 18 September 2024 00:00
Orbit: 437 x 443 km, 82.5° (Epoch: 07 September)

Date Brightness Start Highest point End Pass type
(mag) Time Alt. Az. Time Alt. Az. Time Alt. Az.
08 Sep 6.2 12:31:32 10° SE 12:34:11 22° E 12:36:52 10° NE visible
10 Sep 3.6 12:47:27 10° S 12:50:48 75° E 12:54:10 10° N visible
11 Sep 5.9 12:09:23 10° SE 12:12:08 23° E 12:14:53 10° NE visible
13 Sep 3.4 12:24:51 10° S 12:28:12 79° E 12:31:35 10° N visible
14 Sep 5.7 11:46:29 10° SSE 11:49:16 24° E 11:52:04 10° NE visible
15 Sep 4.2 12:41:03 10° SW 12:44:04 30° W 12:47:05 10° NNW visible
16 Sep 3.3 12:03:21 32° S 12:04:48 82° E 12:08:11 10° N visible
17 Sep 5.5 11:25:26 25° E 11:25:36 25° E 11:28:25 10° NE visible
17 Sep 5.4 12:58:54 10° W 12:59:41 11° WNW 13:00:36 10° WNW visible
